Vorticity
11 13 13 11 11 13 14 12 12 10 10 11 9 11 14 17 15 16 16 16 24 20 17 14 11 16 19 11 11 9 11 11 7 9 10 10 11 8 8 10 9 6 6 5 6 5 10 10 13 18 15 11 17 20
8 11 12 12 9 11 15 12 12 10 9 10 8 12 14 15 17 16 17 23 22 20 13 27 24 2 13 16 12 12 11 9 9 9 10 11 9 8 11 10 10 7 5 6 7 6 6 12 18 12 9 25 25 12
9 8 11 10 11 11 14 12 10 10 10 10 8 12 14 16 16 15 22 22 24 14 6 -4 9 26 15 14 13 11 9 9 9 9 8 11 8 7 10 8 6 5 6 7 6 9 13 19 8 20 28 24 21 27
10 8 10 11 11 11 12 13 10 10 10 9 8 12 14 16 17 17 24 21 23 3 7 3 16 20 12 8 12 5 10 9 8 9 9 8 8 10 8 5 6 8 6 4 7 16 13 11 35 27 27 26 21 11
8 9 11 12 11 12 12 11 10 10 11 9 9 11 15 17 15 24 27 18 11 10 0 25 10 16 1 -3 11 9 8 5 4 13 11 9 10 12 6 4 8 5 5 8 16 6 33 28 36 26 17 20 8 17
7 9 10 11 11 12 11 11 11 10 12 9 9 10 16 18 19 21 20 1 3 10 4 15 6 -12 22 10 15 3 9 7 11 7 10 10 13 6 4 7 2 6 6 13 20 28 32 33 29 9 6 12 17 14
9 9 9 10 13 11 13 12 10 9 12 9 9 9 16 17 18 14 11 4 -2 14 10 27 14 -0 12 6 12 9 7 9 3 7 10 10 10 4 5 2 6 6 13 27 24 36 29 14 11 18 6 12 12 21
10 9 10 11 10 7 12 13 12 10 11 10 10 8 15 16 18 18 4 1 19 8 33 -2 33 4 -9 35 2 11 6 22 0 9 8 13 7 3 5 6 5 14 34 29 33 20 17 14 8 3 10 16 34 11
11 16 20 13 9 8 6 12 15 10 11 10 9 8 12 18 17 23 9 9 8 9 31 26 4 2 -22 38 2 15 6 18 6 11 10 10 5 5 3 5 13 39 13 28 32 18 12 10 13 26 31 8 2 5
18 16 10 10 24 10 8 7 12 13 10 10 9 8 10 16 15 19 12 4 10 11 6 -14 50 7 14 -14 6 9 9 4 10 12 9 9 2 -1 5 11 14 23 11 13 15 26 29 30 25 8 -2 4 14 23
16 7 10 13 16 30 10 6 5 13 13 11 10 9 7 13 16 16 9 16 20 5 21 2 25 28 5 24 10 11 11 3 7 11 10 6 3 6 9 10 30 6 4 5 8 2 1 2 4 5 11 21 5 6
10 9 10 13 13 16 34 8 6 8 16 12 10 10 7 10 13 13 15 8 9 20 17 -10 17 24 -11 8 14 10 8 14 3 12 9 9 7 7 10 12 38 10 6 1 5 4 5 5 7 11 11 11 1 1
10 8 9 12 16 21 27 22 11 9 10 14 11 10 7 10 11 16 14 11 8 25 17 3 -1 6 33 8 4 10 12 5 11 8 10 8 6 11 9 34 18 5 4 2 5 8 8 8 9 13 3 -4 8 6
11 10 7 11 15 18 18 21 15 12 10 13 12 12 11 8 7 12 9 16 7 21 17 14 8 -0 25 5 8 7 7 5 20 8 10 8 5 10 7 37 14 3 3 3 5 8 6 8 7 7 10 6 9 3
9 11 8 10 9 10 6 7 11 18 16 12 14 14 9 7 5 6 17 17 5 16 26 -1 8 -8 21 14 8 11 5 10 3 13 10 8 6 12 9 37 10 6 -1 4 4 6 8 7 10 12 8 8 4 3
11 11 11 11 6 4 5 4 8 11 15 22 16 13 10 7 6 5 8 18 14 6 27 10 21 4 4 21 13 9 11 -1 13 14 11 7 10 10 9 30 7 8 3 1 3 3 6 6 6 7 5 3 2 -1
10 11 13 11 9 12 12 6 6 8 10 24 19 15 10 8 6 7 4 14 17 4 23 18 9 24 15 7 4 8 11 6 10 14 11 8 10 9 13 23 7 8 6 3 0 4 3 8 6 2 4 -0 -1 -1
13 12 12 9 14 12 9 12 12 12 16 12 24 22 13 9 8 5 9 5 16 10 20 10 -14 9 41 7 11 13 12 2 10 13 9 6 8 10 8 29 6 5 7 4 2 2 4 3 2 2 6 8 8 5
11 15 11 10 9 12 15 16 14 9 4 1 18 31 16 9 8 6 7 7 10 13 18 12 -8 -2 23 24 8 4 14 7 14 10 11 8 8 10 11 24 10 5 8 6 2 4 2 3 4 5 3 3 4 7
18 17 13 12 13 11 8 5 4 5 7 12 13 27 26 10 9 7 5 10 8 13 14 19 -22 4 15 22 10 7 10 11 5 12 10 8 6 11 8 26 3 4 6 6 7 6 4 6 4 4 4 6 6 6
18 14 11 9 12 21 24 28 29 26 25 17 18 31 31 13 9 8 5 7 13 13 13 26 -25 -0 12 25 21 12 9 7 5 18 7 10 8 10 6 17 17 5 4 5 8 7 5 10 6 5 4 5 5 5
12 12 19 22 19 22 18 21 14 20 24 23 19 27 33 17 10 7 9 8 14 11 13 25 -14 -2 -4 19 17 14 9 6 12 9 12 7 9 13 9 17 16 3 6 1 6 11 7 11 8 5 4 5 9 8
19 19 21 7 16 16 11 19 11 15 11 30 23 28 28 21 12 11 11 5 14 13 11 17 5 -14 -2 8 21 5 10 7 4 6 19 5 7 11 10 13 15 9 3 2 11 12 9 6 7 9 10 8 7 7
18 12 11 3 -15 29 16 5 13 15 11 22 25 23 23 29 17 13 8 7 11 18 6 20 6 12 -8 -7 22 2 8 11 6 8 0 12 8 9 13 7 17 11 5 10 7 -3 -3 5 7 7 7 9 8 6
8 9 -4 14 15 2 -1 14 9 17 10 1 13 22 28 27 24 11 6 8 7 17 10 22 11 8 5 -8 9 31 1 6 9 8 10 3 8 10 14 8 13 10 11 6 5 7 6 6 6 8 8 8 6 6
0 10 11 8 1 -4 -3 -6 -2 -2 14 15 10 11 14 37 31 19 5 3 13 18 16 11 15 19 4 4 4 19 12 4 7 6 11 8 5 10 15 10 13 14 2 6 6 2 5 5 6 6 6 6 8 8
-5 1 26 -2 -6 9 22 9 9 7 12 8 9 7 10 44 33 11 8 9 7 18 18 15 7 27 11 5 3 20 15 7 4 9 10 9 7 6 19 13 10 15 7 8 -0 2 4 7 7 8 10 9 8 7
2 3 1 17 5 2 1 3 5 9 6 9 14 20 32 40 22 14 12 9 8 14 22 16 18 15 -3 -4 3 6 15 10 6 6 8 11 6 4 17 17 11 11 12 7 0 1 4 6 6 6 8 9 9 7
-3 -4 5 13 10 2 -1 1 14 12 13 15 15 20 30 25 22 21 16 10 18 20 19 19 18 0 26 1 0 6 10 10 8 6 6 8 6 7 14 20 9 9 12 10 5 3 3 5 1 5 3 6 10 16
14 9 5 2 2 14 14 15 15 15 14 12 16 21 23 20 18 27 20 18 17 16 22 16 16 7 23 12 -0 12 10 10 8 7 5 6 7 10 15 17 9 8 10 10 9 6 3 5 4 8 7 6 3 5
28 3 -6 -0 6 7 -8 3 14 9 11 12 14 16 16 21 28 28 26 19 16 17 23 21 14 11 11 23 7 -4 4 11 5 8 4 9 8 9 16 17 7 7 10 14 13 11 8 8 6 6 8 10 9 10
-25 4 8 11 -5 -3 3 7 10 12 9 11 13 13 17 40 47 22 28 20 18 23 16 21 13 14 11 11 16 12 10 10 9 7 7 10 5 9 14 15 8 5 7 10 12 14 15 17 13 10 6 7 8 7
12 24 13 17 10 12 13 15 14 12 12 16 12 11 24 41 60 21 31 22 16 16 19 22 16 14 11 9 11 12 12 10 6 11 10 9 5 9 12 12 8 4 4 6 10 14 12 15 18 12 10 9 11 10
Height
5546 5548 5550 5552 5553 5555 5556 5558 5560 5562 5564 5566 5568 5569 5570 5571 5573 5575 5579 5583 5588 5594 5602 5609 5616 5622 5630 5638 5644 5653 5661 5668 5675 5680 5685 5689 5692 5694 5695 5697 5698 5698 5697 5695 5692 5688 5685 5679 5673 5669 5664 5658 5654 5650
5542 5544 5546 5547 5549 5550 5552 5554 5556 5558 5560 5563 5564 5565 5566 5567 5569 5572 5575 5579 5585 5592 5600 5605 5613 5619 5627 5635 5644 5651 5659 5665 5671 5677 5682 5685 5689 5691 5692 5694 5695 5694 5693 5691 5689 5683 5677 5671 5665 5661 5657 5653 5650 5646
5538 5540 5542 5543 5545 5547 5548 5550 5552 5554 5557 5559 5561 5562 5563 5564 5566 5569 5573 5578 5583 5589 5598 5603 5609 5616 5625 5633 5641 5649 5656 5662 5669 5674 5678 5682 5686 5688 5689 5691 5691 5690 5688 5686 5683 5677 5670 5664 5659 5655 5652 5649 5646 5644
5534 5536 5537 5539 5541 5543 5545 5547 5549 5551 5553 5556 5558 5559 5560 5562 5564 5567 5571 5576 5582 5589 5596 5603 5609 5616 5624 5632 5640 5649 5654 5660 5666 5671 5676 5680 5683 5685 5687 5688 5688 5688 5685 5681 5677 5670 5664 5659 5655 5653 5650 5648 5648 5647
5529 5531 5533 5535 5536 5538 5541 5543 5545 5548 5551 5553 5555 5556 5558 5560 5563 5566 5571 5576 5581 5589 5595 5602 5609 5617 5622 5631 5639 5646 5652 5658 5664 5670 5674 5677 5680 5684 5685 5686 5686 5684 5681 5677 5671 5664 5660 5657 5654 5652 5652 5652 5652 5652
5524 5526 5528 5530 5532 5534 5537 5539 5542 5545 5548 5550 5552 5554 5557 5559 5563 5566 5571 5576 5581 5585 5593 5600 5609 5614 5621 5630 5638 5645 5651 5657 5663 5667 5672 5675 5679 5682 5684 5684 5683 5682 5678 5672 5666 5661 5659 5657 5656 5657 5657 5658 5657 5657
5519 5521 5523 5525 5527 5530 5533 5536 5539 5542 5545 5548 5550 5553 5556 5558 5562 5567 5572 5577 5579 5584 5590 5599 5606 5611 5619 5630 5637 5643 5649 5656 5661 5666 5670 5674 5678 5680 5682 5682 5682 5679 5674 5669 5664 5663 5662 5661 5662 5663 5663 5663 5664 5663
5513 5515 5517 5520 5523 5526 5529 5532 5535 5538 5541 5545 5548 5551 5554 5557 5561 5565 5569 5575 5579 5584 5592 5598 5606 5613 5618 5627 5635 5642 5648 5654 5660 5664 5669 5673 5676 5679 5681 5682 5680 5677 5673 5669 5666 5664 5667 5667 5668 5670 5669 5670 5670 5671
5507 5508 5510 5513 5517 5521 5525 5528 5531 5535 5538 5541 5546 5549 5552 5556 5560 5564 5568 5572 5578 5587 5593 5600 5606 5612 5618 5626 5633 5640 5647 5653 5658 5663 5667 5672 5675 5679 5681 5681 5680 5678 5675 5674 5671 5670 5672 5673 5675 5676 5677 5678 5678 5679
5500 5502 5504 5507 5509 5514 5519 5523 5527 5531 5534 5538 5543 5547 5550 5554 5558 5563 5569 5571 5577 5585 5591 5598 5605 5611 5618 5624 5632 5640 5645 5651 5656 5662 5666 5670 5674 5678 5680 5680 5681 5681 5680 5682 5680 5677 5679 5680 5682 5684 5684 5685 5685 5686
5494 5496 5498 5500 5503 5506 5511 5517 5522 5526 5530 5534 5539 5544 5548 5552 5556 5561 5565 5570 5576 5582 5588 5597 5604 5610 5618 5624 5630 5637 5643 5649 5655 5661 5665 5669 5674 5677 5679 5680 5681 5682 5683 5684 5682 5685 5685 5688 5690 5691 5691 5691 5693 5693
5487 5490 5492 5494 5497 5500 5503 5510 5516 5521 5525 5531 5535 5541 5546 5551 5554 5559 5563 5569 5575 5580 5587 5595 5602 5608 5616 5623 5629 5635 5641 5647 5653 5658 5663 5668 5673 5676 5678 5680 5682 5685 5687 5688 5687 5689 5691 5692 5694 5695 5696 5698 5699 5698
5481 5484 5486 5489 5491 5494 5498 5503 5510 5515 5521 5526 5531 5537 5542 5548 5552 5556 5561 5567 5573 5578 5585 5593 5601 5606 5613 5621 5627 5633 5639 5646 5652 5657 5663 5668 5672 5675 5677 5680 5682 5686 5689 5690 5691 5691 5694 5696 5697 5698 5700 5702 5703 5702
5474 5478 5481 5484 5487 5490 5493 5498 5504 5509 5515 5521 5526 5533 5538 5545 5549 5554 5560 5565 5571 5575 5581 5592 5599 5605 5612 5618 5624 5630 5638 5644 5650 5657 5662 5666 5671 5674 5677 5680 5684 5689 5691 5693 5694 5695 5697 5699 5700 5702 5702 5704 5706 5705
5468 5471 5475 5479 5483 5486 5490 5494 5499 5504 5509 5515 5521 5528 5535 5541 5546 5550 5556 5562 5568 5572 5579 5587 5595 5604 5610 5616 5622 5630 5637 5641 5648 5654 5659 5664 5669 5673 5676 5680 5684 5689 5693 5695 5696 5698 5700 5701 5703 5704 5706 5707 5708 5707
5461 5465 5470 5474 5478 5481 5485 5489 5494 5499 5503 5508 5516 5524 5531 5536 5542 5546 5552 5558 5564 5569 5574 5583 5592 5601 5607 5613 5621 5627 5634 5637 5645 5650 5656 5662 5667 5671 5675 5679 5684 5690 5694 5697 5698 5700 5702 5704 5705 5706 5707 5709 5709 5710
5454 5458 5462 5466 5470 5473 5478 5483 5487 5492 5495 5503 5512 5517 5524 5529 5536 5542 5548 5554 5559 5565 5571 5580 5589 5597 5603 5610 5618 5624 5627 5632 5640 5647 5653 5660 5665 5669 5673 5678 5683 5688 5693 5696 5699 5702 5703 5705 5707 5708 5709 5710 5711 5712
5446 5449 5454 5458 5461 5465 5470 5474 5478 5484 5490 5497 5503 5509 5516 5523 5530 5537 5543 5549 5554 5561 5567 5575 5584 5592 5599 5606 5614 5619 5624 5632 5638 5644 5650 5656 5662 5667 5671 5676 5681 5687 5691 5695 5699 5702 5705 5706 5708 5709 5710 5710 5711 5712
5436 5440 5445 5449 5454 5459 5463 5467 5472 5477 5483 5490 5495 5499 5506 5514 5521 5528 5536 5543 5549 5555 5562 5571 5583 5589 5596 5603 5610 5614 5621 5628 5635 5641 5647 5653 5659 5664 5669 5672 5677 5683 5689 5692 5697 5702 5704 5705 5707 5709 5710 5711 5712 5712
5427 5431 5436 5440 5445 5448 5453 5457 5462 5468 5473 5481 5485 5489 5496 5505 5512 5521 5529 5536 5542 5549 5558 5568 5579 5585 5592 5597 5603 5610 5617 5625 5632 5638 5644 5651 5655 5660 5666 5672 5677 5681 5686 5690 5693 5697 5700 5703 5706 5707 5709 5710 5711 5712
5419 5423 5427 5430 5434 5439 5442 5446 5451 5458 5464 5470 5474 5479 5487 5497 5505 5513 5521 5527 5535 5545 5556 5568 5573 5578 5586 5593 5598 5606 5614 5621 5628 5634 5641 5647 5652 5655 5661 5667 5671 5676 5682 5686 5691 5695 5698 5701 5703 5706 5708 5709 5710 5710
5413 5417 5420 5423 5427 5431 5435 5438 5444 5450 5455 5460 5464 5469 5476 5486 5495 5505 5511 5518 5529 5541 5553 5560 5565 5571 5579 5587 5593 5601 5608 5616 5622 5629 5636 5642 5649 5655 5660 5665 5670 5675 5680 5684 5688 5692 5696 5698 5701 5703 5705 5706 5707 5708
5408 5412 5417 5420 5423 5427 5432 5437 5442 5447 5450 5454 5459 5463 5470 5478 5487 5495 5502 5511 5524 5536 5545 5551 5556 5565 5575 5581 5588 5596 5602 5610 5616 5623 5630 5637 5643 5648 5655 5660 5664 5671 5677 5682 5685 5688 5691 5695 5697 5699 5701 5702 5704 5706
5404 5409 5414 5418 5421 5425 5430 5434 5439 5443 5447 5451 5455 5459 5465 5472 5480 5486 5494 5504 5518 5528 5537 5544 5547 5556 5565 5574 5583 5588 5595 5603 5609 5617 5624 5630 5636 5643 5649 5655 5660 5665 5671 5675 5680 5684 5688 5691 5693 5696 5698 5699 5701 5702
5402 5406 5410 5411 5416 5423 5427 5432 5436 5440 5444 5447 5450 5454 5459 5463 5470 5477 5487 5500 5509 5517 5524 5532 5538 5547 5557 5569 5576 5582 5590 5597 5604 5611 5619 5625 5632 5638 5644 5650 5656 5661 5665 5671 5675 5679 5683 5686 5689 5692 5694 5696 5697 5698
5396 5400 5403 5408 5414 5419 5423 5427 5431 5436 5440 5441 5444 5448 5451 5453 5460 5470 5483 5493 5500 5509 5519 5527 5533 5542 5552 5561 5570 5578 5585 5592 5599 5607 5614 5621 5627 5634 5640 5646 5652 5657 5662 5667 5673 5677 5679 5682 5685 5688 5690 5692 5693 5694
5389 5392 5399 5407 5411 5416 5420 5424 5427 5430 5433 5436 5438 5441 5443 5444 5452 5466 5477 5484 5493 5500 5511 5521 5529 5535 5544 5552 5562 5571 5578 5587 5595 5601 5608 5615 5623 5629 5636 5642 5648 5652 5657 5662 5667 5672 5676 5679 5682 5685 5687 5688 5689 5690
5383 5391 5398 5405 5408 5413 5416 5419 5421 5424 5426 5428 5430 5432 5434 5440 5450 5458 5464 5471 5476 5483 5495 5507 5518 5528 5538 5546 5554 5562 5571 5580 5589 5596 5603 5612 5617 5623 5630 5637 5643 5649 5653 5659 5664 5668 5672 5675 5678 5680 5682 5683 5684 5685
5381 5389 5394 5399 5402 5406 5409 5413 5416 5418 5422 5422 5423 5424 5428 5433 5440 5448 5454 5458 5466 5479 5490 5500 5509 5519 5529 5538 5546 5554 5565 5574 5582 5590 5599 5606 5613 5619 5624 5631 5637 5642 5648 5653 5658 5663 5667 5671 5674 5676 5678 5679 5680 5680
5379 5385 5389 5394 5397 5401 5406 5407 5410 5410 5410 5411 5413 5416 5419 5425 5434 5437 5441 5450 5460 5472 5484 5491 5500 5512 5523 5533 5541 5549 5559 5569 5577 5586 5594 5601 5608 5613 5617 5624 5630 5635 5641 5647 5652 5656 5661 5664 5667 5669 5671 5673 5674 5675
5373 5378 5383 5387 5392 5396 5398 5399 5400 5400 5402 5404 5406 5408 5414 5418 5419 5427 5434 5444 5455 5466 5477 5488 5498 5510 5520 5529 5536 5544 5553 5563 5572 5581 5588 5594 5599 5606 5613 5618 5623 5629 5635 5640 5645 5650 5654 5658 5660 5662 5663 5665 5666 5667
5369 5373 5378 5382 5385 5388 5389 5389 5390 5392 5395 5396 5400 5402 5406 5405 5410 5420 5430 5442 5454 5465 5475 5483 5495 5508 5516 5522 5528 5537 5548 5556 5565 5573 5581 5587 5593 5599 5605 5612 5618 5624 5629 5634 5638 5642 5646 5650 5652 5654 5656 5657 5659 5661
5362 5366 5370 5372 5374 5377 5381 5381 5382 5384 5387 5390 5394 5395 5396 5396 5404 5420 5428 5438 5448 5458 5468 5479 5490 5497 5506 5514 5521 5530 5539 5548 5559 5568 5575 5580 5586 5592 5599 5606 5612 5618 5623 5628 5632 5635 5638 5642 5645 5647 5649 5650 5652 5653